Location: Fayetteville
(35.0530°N, 78.8790°W)
Time: 17:15:52
(UTC-04:00)

Hubble Space Telescope - Pass Details

Date: 16 June 2019
Orbit: 536 x 540 km, 28.5° (Epoch: 18 July)

Event Time Altitude Azimuth Distance (km) Brightness Sun altitude
Exits shadow 04:51:55 20° 231° (SW) 1,284 2.0 -12.4°
Maximum altitude 04:54:05 32° 181° (S) 918 1.6 -12.1°
Drops below altitude 10° 04:57:47 10° 117° (ESE) 1,777 3.7 -11.5°
Sets 05:00:11 0° 107° (ESE) 2,667 4.8 -11.1°
